Main page
Satellite images Climate Cyclones Lightning AirportsFAQ Languages Contact Newsletter About
Weather : Europe Africa North America South America Asia Australia-Oceania Others

0837, Phnom Penh, Phnom Penh International Airport

latitude: , longitude: Cambodia, elevation: 11-33N m


METAR: VDPP 211700Z 16002KT 9000 SCT015 FEWS017CB SCT040 26/25 Q1007 CB W/S